FW3877 Weather Reports


Display with metric or nautical units.
time (UTC)temp
F
wind
direction
speed
MPH
gust
MPH
rain 1hr
in
rain 24hr
in
rain mn
in
humidity
%
barometer
mb
20260901063705 58 248 5.0 9.0 0.09 0.16 0.10 95 1014.1
20260901063204 58 232 6.0 12.0 0.09 0.16 0.10 95 1014.2
20260901062203 58 260 4.0 10.0 0.09 0.15 0.09 95 1014.1
20260901061704 58 255 6.0 12.0 0.08 0.14 0.09 95 1014.2
20260901061204 58 248 4.0 8.0 0.08 0.14 0.09 95 1014.1
20260901060703 58 248 5.0 9.0 0.08 0.14 0.09 94 1014.0
20260901055703 58 262 5.0 12.0 0.03 0.09 0.04 94 1014.1
20260901054704 59 235 5.0 12.0 0.01 0.07 0.02 94 1014.0
20260901054204 59 242 7.0 12.0 0.00 0.06 0.01 94 1013.9
20260901053203 59 234 8.0 15.0 0.00 0.07 0.01 94 1013.8
20260901052704 58 225 8.0 12.0 0.00 0.07 0.01 94 1013.8
20260901052204 59 204 7.0 14.0 0.00 0.07 0.01 94 1013.8
20260901051704 58 257 7.0 10.0 0.00 0.07 0.01 94 1013.8
20260901051203 58 237 6.0 12.0 0.00 0.07 0.01 94 1013.8
20260901050704 58 243 8.0 12.0 0.00 0.07 0.01 94 1013.8
20260901050203 58 248 6.0 13.0 0.00 0.07 0.01 94 1013.8
20260901045203 58 230 7.0 12.0 0.00 0.07 0.01 94 1013.8
20260901044703 58 251 6.0 12.0 0.00 0.07 0.01 94 1013.8
20260901044204 58 242 7.0 13.0 0.00 0.07 0.01 94 1013.7
20260901043703 58 254 9.0 13.0 0.00 0.07 0.01 94 1013.7
20260901043204 58 238 7.0 14.0 0.00 0.07 0.01 94 1013.7
20260901042704 58 244 6.0 12.0 0.00 0.07 0.01 94 1013.7
20260901042203 58 242 8.0 14.0 0.00 0.07 0.01 94 1013.7
20260901041704 58 252 6.0 12.0 0.01 0.07 0.01 94 1013.7
20260901041204 58 257 6.0 12.0 0.01 0.07 0.01 94 1013.8
20260901040204 57 255 6.0 10.0 0.01 0.07 0.01 94 1013.8
20260901035704 58 226 6.0 12.0 0.01 0.07 0.01 94 1013.9
20260901035203 58 221 6.0 8.0 0.01 0.07 0.01 94 1014.0
20260901034703 58 234 5.0 8.0 0.01 0.07 0.01 94 1014.0
20260901034204 58 226 6.0 10.0 0.01 0.07 0.01 94 1013.9
20260901033704 58 247 6.0 9.0 0.01 0.07 0.01 94 1013.8
20260901032704 57 234 7.0 12.0 0.01 0.07 0.01 94 1013.8
20260901032204 57 255 6.0 12.0 0.01 0.07 0.01 94 1013.8
20260901031703 57 241 5.0 8.0 0.00 0.06 0.00 94 1013.7
20260901031203 57 240 5.0 9.0 0.00 0.06 0.00 93 1013.8
20260901030203 58 220 6.0 10.0 0.00 0.06 0.00 93 1013.7
20260901025704 58 256 6.0 12.0 0.00 0.06 0.00 93 1013.8
20260901025204 58 239 6.0 12.0 0.00 0.06 0.00 93 1013.8
20260901024704 58 220 8.0 12.0 0.00 0.06 0.00 93 1013.8
20260901024203 58 231 7.0 14.0 0.00 0.06 0.00 93 1013.8
20260901023704 58 235 7.0 15.0 0.00 0.06 0.00 93 1013.8
20260901023204 58 245 9.0 14.0 0.00 0.06 0.00 93 1013.8
20260901022704 58 243 6.0 13.0 0.00 0.06 0.00 93 1013.8
20260901022204 58 241 9.0 17.0 0.00 0.06 0.00 93 1013.9
20260901021703 58 245 7.0 17.0 0.00 0.06 0.00 93 1013.9
20260901021204 58 237 8.0 15.0 0.00 0.06 0.00 93 1013.9
20260901020704 58 232 7.0 13.0 0.00 0.06 0.00 94 1013.9
20260901015703 58 221 7.0 12.0 0.00 0.06 0.00 93 1013.9
20260901015204 58 269 7.0 14.0 0.00 0.06 0.00 94 1014.0
20260901014704 58 236 5.0 12.0 0.00 0.06 0.00 94 1014.1
20260901014203 58 217 6.0 12.0 0.00 0.06 0.00 94 1014.2
20260901013703 58 230 6.0 10.0 0.00 0.06 0.00 94 1014.2
20260901012704 58 223 5.0 12.0 0.00 0.06 0.00 94 1014.3
20260901012204 58 228 6.0 12.0 0.00 0.06 0.00 94 1014.3
20260901011704 58 221 6.0 13.0 0.00 0.06 0.00 94 1014.3
20260901011204 57 233 7.0 12.0 0.00 0.06 0.00 94 1014.4
20260901010704 57 240 6.0 12.0 0.00 0.06 0.00 94 1014.4
20260901005704 57 258 6.0 12.0 0.00 0.06 0.00 94 1014.4
20260901005203 57 266 6.0 12.0 0.00 0.06 0.00 94 1014.4
20260901004704 57 231 5.0 10.0 0.00 0.06 0.00 94 1014.4
20260901004204 57 229 5.0 9.0 0.00 0.06 0.00 94 1014.4
20260901003704 57 238 5.0 12.0 0.00 0.06 0.00 94 1014.4
20260901002704 57 226 5.0 9.0 0.00 0.06 0.00 94 1014.5
20260901001704 57 234 5.0 9.0 0.00 0.06 0.00 94 1014.6
20260901001204 57 239 5.0 8.0 0.00 0.06 0.00 94 1014.5
20260901000704 57 234 6.0 10.0 0.00 0.06 0.00 94 1014.6
20260901000204 57 225 5.0 9.0 0.00 0.06 0.00 94 1014.7
20260831235703 56 223 5.0 10.0 0.00 0.06 0.00 94 1014.6
20260831234704 56 241 3.0 6.0 0.00 0.06 0.00 94 1014.8
20260831234204 56 236 5.0 9.0 0.00 0.06 0.00 94 1014.9
20260831232704 56 227 6.0 9.0 0.00 0.06 0.00 94 1015.1
20260831232204 56 229 5.0 10.0 0.00 0.06 0.00 94 1015.1
20260831231704 57 219 5.0 8.0 0.00 0.06 0.00 94 1015.0
20260831231203 57 231 5.0 10.0 0.00 0.06 0.00 94 1015.1
20260831230704 57 236 6.0 9.0 0.00 0.06 0.00 94 1015.2
20260831230204 56 235 5.0 8.0 0.00 0.06 0.00 94 1015.2
20260831225704 56 243 5.0 9.0 0.00 0.06 0.06 94 1015.2
20260831225205 56 242 2.0 5.0 0.00 0.06 0.06 94 1015.3
20260831224704 56 230 3.0 7.0 0.00 0.06 0.06 94 1015.2
20260831224204 56 230 5.0 8.0 0.00 0.07 0.06 94 1015.3
20260831223704 56 220 4.0 8.0 0.01 0.08 0.06 94 1015.3
20260831222703 56 212 5.0 8.0 0.01 0.09 0.06 94 1015.2
20260831222204 56 227 5.0 12.0 0.01 0.14 0.06 94 1015.3
20260831221703 56 217 5.0 10.0 0.01 0.14 0.06 94 1015.1
20260831221204 56 221 5.0 12.0 0.01 0.14 0.06 94 1015.2
20260831220704 57 223 5.0 10.0 0.01 0.14 0.06 94 1015.3
20260831220204 57 250 6.0 10.0 0.01 0.14 0.06 94 1015.3
20260831215704 57 216 5.0 9.0 0.01 0.14 0.06 94 1015.4
20260831215203 57 218 7.0 12.0 0.01 0.14 0.06 94 1015.3
20260831214704 57 226 7.0 14.0 0.01 0.14 0.06 94 1015.3
20260831214204 57 229 8.0 12.0 0.01 0.14 0.06 94 1015.3
20260831213703 57 231 5.0 7.0 0.00 0.13 0.06 94 1015.3
20260831213204 56 219 6.0 8.0 0.00 0.13 0.06 93 1015.4
20260831212704 57 207 3.0 6.0 0.00 0.13 0.06 94 1015.3
20260831212204 57 209 3.0 6.0 0.00 0.13 0.06 94 1015.4
20260831211704 57 226 5.0 8.0 0.00 0.13 0.06 94 1015.4
20260831210704 56 225 4.0 8.0 0.00 0.13 0.06 93 1015.5
20260831205704 56 220 5.0 10.0 0.00 0.13 0.06 93 1015.4
20260831205204 56 221 5.0 8.0 0.00 0.13 0.06 93 1015.4
20260831204704 56 210 5.0 8.0 0.00 0.13 0.06 93 1015.5
20260831203704 56 247 5.0 7.0 0.00 0.13 0.06 93 1015.4
20260831203204 56 232 5.0 10.0 0.00 0.13 0.06 93 1015.5
20260831201703 57 217 5.0 9.0 0.00 0.13 0.06 93 1015.4
20260831201204 57 248 4.0 6.0 0.00 0.13 0.06 93 1015.4
20260831200704 57 222 5.0 8.0 0.00 0.13 0.06 93 1015.4
20260831200204 57 226 4.0 8.0 0.00 0.13 0.06 93 1015.6
20260831195704 57 215 3.0 9.0 0.00 0.13 0.06 93 1015.4
20260831195204 57 223 5.0 9.0 0.00 0.13 0.06 93 1015.5
20260831194704 57 225 5.0 8.0 0.00 0.13 0.06 93 1015.4
20260831194204 57 225 5.0 9.0 0.00 0.13 0.06 93 1015.4
20260831193704 57 220 6.0 10.0 0.00 0.13 0.06 93 1015.4
20260831193204 57 215 6.0 10.0 0.00 0.13 0.06 93 1015.4
20260831192704 57 244 5.0 8.0 0.00 0.13 0.06 93 1015.3
20260831192204 57 193 4.0 6.0 0.00 0.13 0.06 93 1015.3
20260831191703 57 231 5.0 6.0 0.00 0.13 0.06 93 1015.2
20260831191204 57 210 5.0 7.0 0.01 0.13 0.06 93 1015.2
20260831190705 57 207 4.0 6.0 0.02 0.13 0.06 93 1015.1
20260831190203 57 208 5.0 7.0 0.02 0.14 0.06 93 1015.1
20260831185704 57 213 3.0 7.0 0.02 0.14 0.06 93 1015.0
20260831185204 57 217 5.0 9.0 0.02 0.14 0.06 93 1015.1
20260831184705 57 216 4.0 7.0 0.02 0.14 0.06 93 1015.1
20260831184204 57 225 6.0 9.0 0.02 0.15 0.06 93 1015.1
20260831183704 57 216 6.0 12.0 0.02 0.19 0.06 93 1015.1
20260831183204 57 233 7.0 14.0 0.02 0.19 0.06 93 1015.1
20260831182704 57 227 6.0 12.0 0.02 0.19 0.06 93 1015.1
20260831182203 57 226 6.0 12.0 0.02 0.19 0.06 92 1015.2
20260831181704 58 233 6.0 10.0 0.02 0.19 0.06 92 1015.2
20260831181203 58 242 6.0 12.0 0.02 0.18 0.05 92 1015.2
20260831180203 58 229 5.0 9.0 0.00 0.17 0.03 92 1015.1
20260831175703 58 228 4.0 8.0 0.00 0.17 0.03 92 1015.1
20260831175204 58 238 5.0 12.0 0.00 0.17 0.03 92 1015.2
20260831174704 58 232 4.0 10.0 0.00 0.17 0.03 92 1015.0
20260831174204 58 229 5.0 8.0 0.00 0.17 0.03 92 1015.1
20260831173204 57 177 6.0 9.0 0.00 0.17 0.03 92 1015.0
20260831172204 57 193 3.0 8.0 0.00 0.17 0.03 92 1015.0
20260831171703 57 181 5.0 9.0 0.00 0.17 0.03 92 1015.1
20260831171203 57 189 4.0 6.0 0.00 0.17 0.03 92 1015.2
20260831170204 57 222 5.0 9.0 0.00 0.17 0.03 92 1015.1
20260831165704 57 218 5.0 8.0 0.01 0.17 0.03 92 1015.2
20260831165204 57 225 5.0 8.0 0.01 0.17 0.03 92 1015.2
20260831164204 57 210 6.0 9.0 0.01 0.17 0.03 91 1015.3
20260831163703 57 238 3.0 8.0 0.01 0.17 0.03 91 1015.2
20260831163203 57 227 5.0 8.0 0.01 0.17 0.03 91 1015.3
20260831162704 57 236 4.0 9.0 0.01 0.17 0.03 91 1015.2
20260831162205 57 243 4.0 10.0 0.01 0.17 0.03 90 1015.3
20260831161705 57 236 6.0 13.0 0.01 0.17 0.03 90 1015.2
20260831161204 57 244 8.0 17.0 0.01 0.17 0.03 89 1015.4
20260831160203 58 255 6.0 14.0 0.02 0.17 0.03 88 1015.2
20260831155703 58 244 10.0 15.0 0.01 0.17 0.02 87 1015.3
20260831155204 59 226 7.0 14.0 0.01 0.17 0.02 87 1015.0
20260831154705 59 233 6.0 12.0 0.01 0.17 0.02 89 1014.9
20260831154204 59 227 6.0 12.0 0.01 0.17 0.02 89 1014.9
20260831153705 59 238 5.0 9.0 0.01 0.17 0.02 89 1015.0
20260831153204 58 239 6.0 9.0 0.01 0.19 0.02 89 1015.0
20260831152704 58 223 5.0 8.0 0.01 0.20 0.02 89 1015.1
20260831152203 58 237 5.0 9.0 0.01 0.24 0.02 88 1015.1
20260831151204 57 248 5.0 10.0 0.01 0.31 0.02 86 1015.1
20260831150704 58 258 6.0 12.0 0.01 0.32 0.02 85 1015.2
20260831145704 59 240 6.0 10.0 0.00 0.71 0.02 82 1015.1
20260831145204 60 222 7.0 12.0 0.00 0.76 0.02 80 1015.0
20260831144704 60 217 6.0 9.0 0.00 0.76 0.02 80 1014.9
20260831144204 60 268 5.0 9.0 0.00 0.76 0.02 79 1015.0
20260831143704 60 252 5.0 10.0 0.00 0.76 0.02 79 1014.9
20260831142704 60 265 6.0 12.0 0.00 0.76 0.02 79 1014.9
20260831142203 60 247 7.0 12.0 0.00 0.76 0.02 78 1014.8
20260831141704 60 243 7.0 12.0 0.00 0.76 0.02 78 1014.8
20260831141204 60 264 7.0 12.0 0.00 0.76 0.02 79 1014.9
20260831140203 61 245 4.0 12.0 0.00 0.76 0.02 79 1014.8
20260831135704 60 252 6.0 12.0 0.00 0.76 0.02 79 1014.8
20260831135204 60 267 5.0 12.0 0.00 0.76 0.02 79 1014.7
20260831134704 60 275 6.0 10.0 0.00 0.76 0.02 79 1014.6
20260831134204 60 251 7.0 12.0 0.00 0.76 0.02 78 1014.6
20260831133703 60 265 6.0 15.0 0.00 0.76 0.02 78 1014.6
20260831133204 60 256 5.0 12.0 0.00 0.76 0.02 79 1014.6
20260831132705 60 264 5.0 10.0 0.00 0.76 0.02 79 1014.5
20260831132204 60 266 7.0 12.0 0.00 0.76 0.02 79 1014.4
20260831131705 60 259 7.0 13.0 0.00 0.76 0.02 79 1014.5
20260831131205 60 249 7.0 13.0 0.00 0.76 0.02 79 1014.4
20260831130704 60 254 6.0 10.0 0.00 0.76 0.02 79 1014.4
20260831130203 60 251 8.0 12.0 0.00 0.76 0.02 78 1014.4
20260831125204 61 262 6.0 12.0 0.00 0.78 0.02 77 1014.3
20260831124703 61 269 6.0 12.0 0.00 0.78 0.02 77 1014.3
20260831124204 61 261 6.0 12.0 0.00 0.78 0.02 77 1014.2
20260831123704 61 267 7.0 12.0 0.00 0.78 0.02 77 1014.2
20260831123204 61 245 5.0 10.0 0.00 0.78 0.02 78 1014.3
20260831121704 61 276 6.0 12.0 0.00 0.78 0.02 79 1014.2
20260831121204 61 297 5.0 13.0 0.00 0.78 0.02 81 1014.1
20260831115704 60 251 9.0 13.0 0.00 0.78 0.02 80 1014.3
20260831114705 60 257 6.0 10.0 0.00 0.78 0.02 81 1014.2
20260831113704 60 273 6.0 12.0 0.00 0.78 0.02 81 1014.1
20260831113204 60 260 6.0 12.0 0.00 0.78 0.02 81 1014.0
20260831112704 60 266 6.0 12.0 0.00 0.78 0.02 81 1014.0
20260831112203 60 270 6.0 14.0 0.00 0.78 0.02 82 1014.0
20260831111704 59 275 4.0 13.0 0.00 0.78 0.02 82 1013.9
20260831111204 59 279 6.0 10.0 0.00 0.78 0.02 83 1013.9
20260831110704 58 278 5.0 12.0 0.00 0.78 0.02 82 1013.9
20260831110204 58 278 5.0 9.0 0.00 0.78 0.02 82 1013.8
20260831105704 58 288 7.0 12.0 0.00 0.78 0.02 82 1013.8
20260831105204 58 272 5.0 10.0 0.00 0.78 0.02 82 1013.7
20260831104705 59 294 5.0 10.0 0.00 0.78 0.02 83 1013.7
20260831104204 59 267 4.0 9.0 0.00 0.78 0.02 84 1013.7
20260831103704 58 277 6.0 10.0 0.00 0.78 0.02 84 1013.7
20260831103204 58 275 4.0 9.0 0.00 0.78 0.02 84 1013.7
20260831102704 58 275 2.0 3.0 0.00 0.78 0.02 84 1013.5
20260831102204 58 300 3.0 6.0 0.00 0.78 0.02 84 1013.7
20260831101704 58 298 5.0 9.0 0.00 0.78 0.02 83 1013.7
20260831101205 58 280 7.0 10.0 0.00 0.78 0.02 83 1013.5
20260831100704 58 269 3.0 8.0 0.00 0.78 0.02 85 1013.6
20260831100204 57 278 4.0 7.0 0.00 0.78 0.02 85 1013.6
20260831095704 57 260 5.0 12.0 0.00 0.78 0.02 85 1013.4
20260831095204 57 279 6.0 13.0 0.00 0.78 0.02 86 1013.3
20260831094704 57 277 5.0 12.0 0.00 0.78 0.02 86 1013.4
20260831094204 57 282 6.0 10.0 0.00 0.78 0.02 87 1013.3
20260831093704 57 300 5.0 12.0 0.00 0.78 0.02 88 1013.2
20260831093204 57 291 5.0 10.0 0.00 0.78 0.02 89 1013.2
20260831092704 57 293 4.0 10.0 0.00 0.78 0.02 90 1013.1
20260831092205 57 290 4.0 13.0 0.00 0.78 0.02 90 1013.0
20260831091204 57 286 6.0 13.0 0.00 0.78 0.02 91 1012.9
20260831090704 57 282 5.0 12.0 0.00 0.78 0.02 93 1012.9
20260831090204 57 279 7.0 12.0 0.00 0.78 0.02 93 1012.9
20260831085704 56 269 5.0 12.0 0.00 0.78 0.02 94 1012.8
20260831085204 56 299 5.0 12.0 0.00 0.78 0.02 95 1012.8
20260831084704 56 268 4.0 8.0 0.00 0.78 0.02 95 1012.6
20260831084204 56 278 4.0 9.0 0.00 0.78 0.02 95 1012.6
20260831083704 55 263 6.0 10.0 0.00 0.78 0.02 95 1012.5
20260831083204 55 266 4.0 9.0 0.00 0.78 0.02 95 1012.5
20260831082704 54 270 3.0 7.0 0.00 0.78 0.02 95 1012.5
20260831082204 54 264 5.0 9.0 0.00 0.78 0.02 95 1012.4
20260831081704 54 275 4.0 8.0 0.01 0.78 0.02 95 1012.4
20260831081204 54 255 5.0 9.0 0.01 0.78 0.02 96 1012.3
20260831080704 54 255 5.0 9.0 0.01 0.78 0.02 95 1012.2
20260831080204 54 266 3.0 8.0 0.01 0.78 0.02 95 1012.2
20260831075704 54 263 5.0 9.0 0.01 0.78 0.02 95 1012.2
20260831075204 53 260 5.0 7.0 0.01 0.78 0.02 95 1012.1
20260831074204 53 280 2.0 6.0 0.01 0.78 0.02 95 1012.1
20260831073704 53 274 3.0 8.0 0.01 0.78 0.02 95 1012.0
20260831073203 53 308 3.0 12.0 0.01 0.78 0.02 95 1012.0
20260831072704 53 276 3.0 10.0 0.01 0.78 0.02 95 1012.0
20260831072204 53 280 5.0 12.0 0.01 0.78 0.02 95 1011.9
20260831071704 53 281 6.0 9.0 0.00 0.77 0.01 95 1012.0
20260831071204 53 233 5.0 8.0 0.00 0.77 0.01 95 1011.7
20260831070704 53 253 6.0 10.0 0.00 0.77 0.01 95 1011.7
20260831070203 53 247 3.0 7.0 0.00 0.77 0.01 95 1011.5
20260831065205 52 233 3.0 5.0 0.00 0.77 0.01 95 1011.5
20260831064704 52 237 2.0 3.0 0.00 0.77 0.01 95 1011.3
20260831064204 52 229 3.0 5.0 0.00 0.77 0.01 95 1011.2